Mattoon, IL

4:20 AM CDT on July 17, 2019 (GMT -0500)
Coles County Memorial

Weather History for KMTO - May, 2019

Change the Weather History Date:

Sunday, May 26, 2019

  Actual Average Record
Temperature  
Mean Temperature 73 °F 66 °F  
Max Temperature 80 °F 76 °F 92 °F (1953)
Min Temperature 65 °F 56 °F 36 °F (1961)
Degree Days  
Heating Degree Days 0 2  
Month to date heating degree days 130 119  
Since 1 July heating degree days 5517 5381  
Cooling Degree Days 8 4  
Month to date cooling degree days 79 55  
Year to date cooling degree days 84 69  
Growing Degree Days 21 (Base 50)    
Moisture  
Dew Point 63 °F    
Average Humidity 77    
Maximum Humidity 93    
Minimum Humidity 60    
Precipitation  
Precipitation T in 0.12 in 0.74 in (2016)
Month to date precipitation 2.44 3.82  
Year to date precipitation 11.46 13.80  
Sea Level Pressure  
Sea Level Pressure 30.04 in    
Wind  
Wind Speed 5 mph (NNW)    
Max Wind Speed 29 mph    
Max Gust Speed 40 mph    
Visibility 10 miles    
Events Rain , Thunderstorm    
T = Trace of Precipitation, MM = Missing Value Source: NWS Daily Summary

Daily Weather History Graph

Daily Weather History Graph

Search for Another Location

Airport or City:

Astronomy

May. 26, 2019 Rise Set
Actual Time 5:31 AM CDT 8:09 PM CDT
Civil Twilight 4:59 AM CDT 8:41 PM CDT
Nautical Twilight 4:20 AM CDT 9:20 PM CDT
Astronomical Twilight 3:36 AM CDT 10:04 PM CDT
Moon 1:42 AM CDT (5/26) 12:27 PM CDT (5/26)
Length of Visible Light 15h 41m
Length of Day
14h 38m
Waning Gibbous, 50% of the Moon is Illuminated
May 26
Waning Gibbous
Jun 3
New
Jun 10
First Quarter
Jun 17
Full
Jun 25
Last Quarter

Hourly Weather History & Observations

Time (CDT) Temp. Dew Point Humidity Pressure Visibility Wind Dir Wind Speed Gust Speed Precip Events Conditions
12:53 AM 75.9 °F 69.1 °F 79% 29.98 in 10.0 mi SSW 8.1 mph - N/A   Clear
1:53 AM 75.9 °F 68.0 °F 76% 30.05 in 10.0 mi WNW 25.3 mph 40.3 mph 0.00 in Rain Light Rain
2:09 AM 69.1 °F 61.0 °F 75% 30.05 in 10.0 mi NW 19.6 mph 31.1 mph 0.00 in Rain Light Rain
2:30 AM 66.0 °F 63.0 °F 90% 30.03 in 10.0 mi NNW 10.4 mph 23.0 mph 0.00 in Rain , Thunderstorm Light Rain
2:45 AM 64.9 °F 63.0 °F 93% 30.04 in 10.0 mi North 4.6 mph - 0.00 in   Scattered Clouds
2:53 AM 66.0 °F 63.0 °F 90% 30.02 in 10.0 mi NNW 5.8 mph - 0.00 in   Scattered Clouds
3:53 AM 66.0 °F 63.0 °F 90% 30.04 in 10.0 mi NW 3.5 mph - 0.00 in Rain Light Rain
4:53 AM 66.0 °F 63.0 °F 90% 30.04 in 10.0 mi South 3.5 mph - 0.00 in   Mostly Cloudy
5:53 AM 66.0 °F 63.0 °F 90% 30.04 in 10.0 mi Calm Calm - N/A   Mostly Cloudy
6:53 AM 66.9 °F 63.0 °F 87% 30.03 in 10.0 mi Calm Calm - 0.00 in Rain Light Rain
7:53 AM 68.0 °F 63.0 °F 84% 30.04 in 10.0 mi SSE 3.5 mph - 0.00 in   Overcast
8:53 AM 73.0 °F 63.0 °F 71% 30.05 in 10.0 mi North 3.5 mph - N/A   Overcast
9:53 AM 73.9 °F 60.1 °F 62% 30.05 in 10.0 mi NNW 6.9 mph - N/A   Mostly Cloudy
10:31 AM 73.0 °F 60.1 °F 64% 30.07 in 10.0 mi NNE 3.5 mph - N/A Thunderstorm Mostly Cloudy
10:46 AM 73.0 °F 60.1 °F 64% 30.07 in 10.0 mi NNE 3.5 mph - N/A   Mostly Cloudy
10:53 AM 73.0 °F 61.0 °F 66% 30.06 in 10.0 mi Calm Calm - N/A   Mostly Cloudy
11:53 AM 72.0 °F 63.0 °F 73% 30.04 in 10.0 mi South 3.5 mph - 0.00 in   Mostly Cloudy
12:53 PM 73.9 °F 63.0 °F 68% 30.04 in 10.0 mi West 3.5 mph - 0.00 in   Mostly Cloudy
1:53 PM 75.0 °F 63.0 °F 66% 30.04 in 10.0 mi North 6.9 mph - 0.00 in   Mostly Cloudy
2:53 PM 75.9 °F 64.0 °F 67% 30.03 in 10.0 mi Variable 3.5 mph - N/A   Clear
3:53 PM 78.1 °F 64.9 °F 64% 30.03 in 10.0 mi North - - N/A   Scattered Clouds
4:53 PM 78.1 °F 64.9 °F 64% 30.03 in 10.0 mi NW 9.2 mph - N/A   Mostly Cloudy
5:53 PM 77.0 °F 63.0 °F 62% 30.02 in 10.0 mi NNW 10.4 mph - N/A   Scattered Clouds
6:53 PM 75.0 °F 64.0 °F 69% 30.03 in 10.0 mi North 10.4 mph - N/A   Partly Cloudy
7:53 PM 73.0 °F 63.0 °F 71% 30.02 in 10.0 mi NNE 4.6 mph - N/A   Clear
8:53 PM 70.0 °F 64.0 °F 81% 30.03 in 10.0 mi NNE 5.8 mph - N/A   Clear
9:53 PM 69.1 °F 64.0 °F 84% 30.04 in 10.0 mi Calm Calm - N/A   Clear
10:53 PM 68.0 °F 64.9 °F 90% 30.04 in 10.0 mi Calm Calm - N/A   Clear
11:53 PM 66.0 °F 64.0 °F 93% 30.04 in 10.0 mi Calm Calm - N/A   Clear